Regional Weather Roundup
Issued by NWS

Home | Current Version | Previous Version | Graphics & Text | Print | Product List | Glossary On
Versions: 1 2 3 4 5 6 7 8 9 10 11 12 13 14 15 16 17 18 19 20 21 22 23 24 25 26 27 28 29 30 31 32 33 34 35 36 37 38 39 40 41 42 43 44 45 46 47 48 49 50
000
ASUS43 KIND 300209
RWRIN

WEATHER ROUNDUP FOR INDIANA
NATIONAL WEATHER SERVICE INDIANAPOLIS IN
1000 PM EDT WED MAR 29 2017

NOTE: "FAIR" INDICATES FEW OR NO CLOUDS BELOW 12,000 FEET WITH NO
SIGNIFICANT WEATHER AND/OR OBSTRUCTIONS TO VISIBILITY.

* - STATION DOES NOT REPORT WEATHER SUCH AS PRECIPITATION OR FOG.

+ - STATION NOT QUALITY CONTROLLED BY THE NATIONAL WEATHER SERVICE.
    USE DATA WITH CAUTION...ESPECIALLY DEWPOINT AND RELATIVE
    HUMIDITY OBSERVATIONS.

INZ001>003-010>013-019-020-300300-
NORTHWEST INDIANA

CITY           SKY/WX    TMP DP  RH WIND       PRES   REMARKS
GARY /AIRPORT/ LGT RAIN  48  39  71 E9        30.07F
KNOX *+        CLOUDY    50  10  20 E17       30.06R
LA PORTE +     CLOUDY    46  36  68 E14       30.08S
MICHIGAN CITY+ CLOUDY    46  34  61 E6        30.09F
MONTICELLO +   CLOUDY    52  37  57 E12G18    30.00F
RENSSELAER +   LGT RAIN  50  39  66 E16       30.03S
VALPARAISO     CLOUDY    49  39  68 E15       30.07R

$$

LMZ046-743>745-300300-
SOUTHERN LAKE MICHIGAN

STATION/POSITION TIME  TEMP    WIND        PRES    WAVE
                       AIR SEA DIR/SP/G            HT
                 (UTC) (F)     (DEG/KT/KT) (MB)    (FT)
BURNS HARBOR     0101   47      60/ 10/ 19 1019.6
MICHIGAN CITY    0140   49      70/ 16/ 20   N/A

$$

INZ004-005-014>016-021>024-300300-
NORTH CENTRAL INDIANA

CITY           SKY/WX    TMP DP  RH WIND       PRES   REMARKS
GOSHEN         CLOUDY    49  30  48 E15       30.09R
LOGANSPORT +   CLOUDY    50  36  57 E15G21    30.04R
PERU/GRISSOM   CLOUDY    51  36  57 E17G26    30.02F
SOUTH BEND     CLOUDY    47  37  68 NE7       30.12R
WARSAW +       CLOUDY    46  30  53 E15G22    30.08F

$$

INZ006>009-017-018-025>027-300300-
NORTHEAST INDIANA

CITY           SKY/WX    TMP DP  RH WIND       PRES   REMARKS
ANGOLA *+      MOCLDY    46  34  61 VRB7      30.15R
AUBURN +       CLOUDY    46  32  57 E10G18    30.11S
FORT WAYNE     CLOUDY    48  31  51 E23G30    30.09F
HUNTINGTON +   CLOUDY    47  32  56 E13G18    30.07F
KENDALLVILLE + CLOUDY    47  32  55 E8        30.14R

$$

INZ028-029-035-036-043>045-051>053-300300-
WEST CENTRAL INDIANA

CITY           SKY/WX    TMP DP  RH WIND       PRES   REMARKS
CRAWFORDSVL +  CLOUDY    54  43  66 E16G24    29.96F
GREENCASTLE +  CLOUDY    54  43  66 E14G21    29.98S
LAFAYETTE      LGT RAIN  53  41  63 E23G29    29.98S
TERRE HAUTE    MOCLDY    56  45  66 E10       29.95S

$$

INZ030>032-037>040-046>048-054>057-064-065-300300-
CENTRAL INDIANA

CITY           SKY/WX    TMP DP  RH WIND       PRES   REMARKS
CP ATTERBURY + CLOUDY    54  45  71 SE14G21   30.01F
COLUMBUS       CLOUDY    54  46  76 E16       30.01F
FISHERS *+     CLOUDY    52  46  82 E5        30.01F
FRANKFORT +    MOCLDY    54  44  69 E18       30.01F
GREENWOOD *+   PTCLDY    55  45  69 SE13      30.01F
INDIANAPOLIS   CLOUDY    55  44  66 E15       30.00S
-EAGLE CREEK   MOCLDY    57  43  59 SE13G22   30.00S
KOKOMO +       CLOUDY    50  39  66 E17       30.03F
MARION +       CLOUDY    49  37  61 E14G26    30.04F
MT COMFORT *+  PTCLDY    54  43  66 SE10      30.02F
SHELBYVILLE    PTCLDY    54  43  66 SE13      30.01F
ZIONSVILLE +   PTCLDY    52  43  71 E16       30.01F

$$

INZ033-034-041-042-049-050-058-059-300300-
EAST CENTRAL INDIANA

CITY           SKY/WX    TMP DP  RH WIND       PRES   REMARKS
MUNCIE         PTCLDY    52  41  66 E16       30.04F
RICHMOND +     CLOUDY    50  41  71 E9        30.05F

$$

INZ060-061-067>069-081>083-085>088-300300-
SOUTHWEST INDIANA

CITY           SKY/WX    TMP DP  RH WIND       PRES   REMARKS
EVANSVILLE     CLOUDY    63  51  65 E8        29.91S
HUNTINGBURG *+ MOCLDY    61  51  70 E13G20    29.94S
WASHINGTON +   MOCLDY    58  48  67 CALM      29.94S

$$

INZ062-063-066-070>080-084-089>092-300300-
SOUTH CENTRAL AND SOUTHEAST INDIANA

CITY           SKY/WX    TMP DP  RH WIND       PRES   REMARKS
BEDFORD +      CLOUDY    57  46  67 E13G21    29.96F
BLOOMINGTON    PTCLDY    56  45  66 E15       29.97F
MADISON *+     MOCLDY    55  45  67 E15G21    30.03F
NORTH VERNON + MOCLDY    55  46  71 E13       30.03F
SEYMOUR +      CLOUDY    57  46  67 E15       30.00F

$$




USA.gov is the U.S. government's official web portal to all federal, state and local government web resources and services.